| time (UTC) | temp F | wind direction | speed knots | gust knots | rain 1hr in | rain 24hr in | rain mn in | humidity % | barometer mb |
| 20260831212017 | 89 | 338 | 2.6 | 6.1 | 0.00 | 0.00 | 0.00 | 58 | 1021.4 |
| 20260831211017 | 89 | 315 | 0.9 | 3.5 | 0.00 | 0.00 | 0.00 | 56 | 1021.4 |
| 20260831210037 | 89 | 0 | 1.7 | 2.6 | 0.00 | 0.00 | 0.00 | 58 | 1021.5 |
| 20260831205017 | 89 | 315 | 1.7 | 3.5 | 0.00 | 0.00 | 0.00 | 57 | 1021.6 |
| 20260831204057 | 89 | 315 | 1.7 | 3.5 | 0.00 | 0.00 | 0.00 | 56 | 1021.7 |
| 20260831203017 | 89 | 293 | 1.7 | 3.5 | 0.00 | 0.00 | 0.00 | 58 | 1021.9 |
| 20260831202017 | 89 | 23 | 0.9 | 2.6 | 0.00 | 0.00 | 0.00 | 59 | 1021.9 |
| 20260831201017 | 88 | 315 | 2.6 | 7.0 | 0.00 | 0.00 | 0.00 | 60 | 1022.1 |
| 20260831200017 | 88 | 315 | 2.6 | 6.1 | 0.00 | 0.00 | 0.00 | 61 | 1022.2 |
| 20260831195017 | 88 | 338 | 2.6 | 4.3 | 0.00 | 0.00 | 0.00 | 62 | 1022.3 |
| 20260831194027 | 89 | 315 | 5.2 | 8.7 | 0.00 | 0.00 | 0.00 | 60 | 1022.3 |
| 20260831193017 | 90 | 158 | 2.6 | 7.0 | 0.00 | 0.00 | 0.00 | 55 | 1022.4 |
| 20260831192017 | 90 | 315 | 2.6 | 5.2 | 0.00 | 0.00 | 0.00 | 53 | 1022.5 |
| 20260831191017 | 89 | 225 | 0.9 | 2.6 | 0.00 | 0.00 | 0.00 | 59 | 1022.7 |
| 20260831190017 | 88 | 0 | 1.7 | 3.5 | 0.00 | 0.00 | 0.00 | 60 | 1022.6 |
| 20260831185017 | 88 | 270 | 2.6 | 4.3 | 0.00 | 0.00 | 0.00 | 59 | 1022.8 |
| 20260831184017 | 89 | 23 | 1.7 | 3.5 | 0.00 | 0.00 | 0.00 | 58 | 1022.9 |
| 20260831183017 | 90 | 0 | 1.7 | 3.5 | 0.00 | 0.00 | 0.00 | 61 | 1023.1 |
| 20260831182037 | 89 | 113 | 1.7 | 3.5 | 0.00 | 0.00 | 0.00 | 56 | 1023.0 |
| 20260831181017 | 88 | 158 | 1.7 | 3.5 | 0.00 | 0.00 | 0.00 | 60 | 1023.2 |
| 20260831180017 | 88 | 135 | 0.9 | 2.6 | 0.00 | 0.00 | 0.00 | 58 | 1023.2 |
| 20260831175037 | 88 | 338 | 0.9 | 2.6 | 0.00 | 0.00 | 0.00 | 63 | 1023.3 |
| 20260831174017 | 87 | 203 | 0.9 | 2.6 | 0.00 | 0.00 | 0.00 | 59 | 1023.2 |
| 20260831173017 | 87 | 203 | 1.7 | 3.5 | 0.00 | 0.00 | 0.00 | 63 | 1023.4 |
| 20260831172017 | 86 | 68 | 1.7 | 4.3 | 0.00 | 0.00 | 0.00 | 69 | 1023.3 |
| 20260831171037 | 84 | 338 | 1.7 | 4.3 | 0.00 | 0.00 | 0.00 | 69 | 1023.4 |
| 20260831170017 | 84 | 0 | 1.7 | 2.6 | 0.00 | 0.00 | 0.00 | 71 | 1023.5 |
| 20260831165017 | 86 | 315 | 1.7 | 4.3 | 0.00 | 0.00 | 0.00 | 66 | 1023.7 |
| 20260831164017 | 85 | 203 | 1.7 | 2.6 | 0.00 | 0.00 | 0.00 | 70 | 1023.6 |
| 20260831163016 | 85 | 225 | 1.7 | 3.5 | 0.00 | 0.00 | 0.00 | 69 | 1023.7 |
| 20260831162016 | 85 | 270 | 1.7 | 5.2 | 0.00 | 0.00 | 0.00 | 68 | 1023.8 |
| 20260831161016 | 85 | 203 | 2.6 | 5.2 | 0.00 | 0.00 | 0.00 | 71 | 1023.8 |
| 20260831160016 | 84 | 180 | 3.5 | 7.8 | 0.00 | 0.00 | 0.00 | 69 | 1023.8 |
| 20260831155016 | 84 | 203 | 1.7 | 4.3 | 0.00 | 0.00 | 0.00 | 71 | 1023.6 |
| 20260831154017 | 84 | 225 | 1.7 | 3.5 | 0.00 | 0.00 | 0.00 | 70 | 1023.8 |
| 20260831153016 | 83 | 203 | 2.6 | 5.2 | 0.00 | 0.00 | 0.00 | 69 | 1023.9 |
| 20260831152016 | 83 | 203 | 2.6 | 4.3 | 0.00 | 0.00 | 0.00 | 71 | 1023.8 |
| 20260831151016 | 83 | 180 | 1.7 | 5.2 | 0.00 | 0.00 | 0.00 | 71 | 1023.7 |
| 20260831150016 | 82 | 225 | 2.6 | 6.1 | 0.00 | 0.00 | 0.00 | 71 | 1023.7 |
| 20260831145016 | 82 | 203 | 2.6 | 5.2 | 0.00 | 0.00 | 0.00 | 70 | 1023.7 |
| 20260831144017 | 81 | 203 | 2.6 | 6.1 | 0.00 | 0.00 | 0.00 | 75 | 1023.6 |
| 20260831143016 | 81 | 180 | 1.7 | 3.5 | 0.00 | 0.00 | 0.00 | 74 | 1023.4 |
| 20260831142016 | 81 | 203 | 1.7 | 3.5 | 0.00 | 0.00 | 0.00 | 76 | 1023.6 |
| 20260831141016 | 80 | 203 | 1.7 | 2.6 | 0.00 | 0.00 | 0.00 | 76 | 1023.5 |
| 20260831140016 | 80 | 180 | 0.9 | 3.5 | 0.00 | 0.00 | 0.00 | 79 | 1023.4 |
| 20260831135016 | 80 | 180 | 0.9 | 3.5 | 0.00 | 0.00 | 0.00 | 77 | 1023.7 |
| 20260831134016 | 79 | 0.0 | 1.7 | 0.00 | 0.00 | 0.00 | 80 | 1023.7 | |
| 20260831133056 | 78 | 158 | 0.9 | 1.7 | 0.00 | 0.00 | 0.00 | 80 | 1023.5 |
| 20260831132016 | 78 | 0.0 | 1.7 | 0.00 | 0.00 | 0.00 | 84 | 1023.7 | |
| 20260831131036 | 76 | 0.0 | 0.9 | 0.00 | 0.00 | 0.00 | 85 | 1023.5 | |
| 20260831130036 | 74 | 0.0 | 1.7 | 0.00 | 0.00 | 0.00 | 89 | 1023.4 | |
| 20260831125016 | 72 | 0.0 | 0.0 | 0.00 | 0.00 | 0.00 | 91 | 1023.3 | |
| 20260831124016 | 71 | 0.0 | 1.7 | 0.00 | 0.00 | 0.00 | 92 | 1023.3 | |
| 20260831123036 | 71 | 0.0 | 1.7 | 0.00 | 0.00 | 0.00 | 92 | 1023.1 | |
| 20260831122016 | 70 | 0.0 | 1.7 | 0.00 | 0.00 | 0.00 | 93 | 1023.2 | |
| 20260831121016 | 69 | 0.0 | 1.7 | 0.00 | 0.00 | 0.00 | 95 | 1023.0 | |
| 20260831120016 | 68 | 0.0 | 0.0 | 0.00 | 0.00 | 0.00 | 96 | 1022.9 | |
| 20260831115016 | 67 | 0.0 | 1.7 | 0.00 | 0.00 | 0.00 | 95 | 1022.8 | |
| 20260831114016 | 66 | 0.0 | 0.9 | 0.00 | 0.00 | 0.00 | 95 | 1022.7 | |
| 20260831113016 | 66 | 0.0 | 1.7 | 0.00 | 0.00 | 0.00 | 95 | 1022.6 | |
| 20260831112016 | 66 | 0.0 | 1.7 | 0.00 | 0.00 | 0.00 | 95 | 1022.7 | |
| 20260831111016 | 66 | 0.0 | 0.0 | 0.00 | 0.00 | 0.00 | 95 | 1022.6 | |
| 20260831110018 | 66 | 0.0 | 0.0 | 0.00 | 0.00 | 0.00 | 95 | 1022.6 | |
| 20260831105036 | 67 | 0.0 | 1.7 | 0.00 | 0.00 | 0.00 | 95 | 1022.7 | |
| 20260831104016 | 66 | 0 | 0.9 | 1.7 | 0.00 | 0.00 | 0.00 | 95 | 1022.5 |
| 20260831103016 | 66 | 0.0 | 1.7 | 0.00 | 0.00 | 0.00 | 95 | 1022.4 | |
| 20260831102016 | 66 | 0.0 | 0.9 | 0.00 | 0.00 | 0.00 | 95 | 1022.5 | |
| 20260831101016 | 66 | 0.0 | 1.7 | 0.00 | 0.00 | 0.00 | 95 | 1022.4 | |
| 20260831100016 | 66 | 0.0 | 1.7 | 0.00 | 0.00 | 0.00 | 94 | 1022.4 | |
| 20260831095016 | 66 | 0.0 | 0.9 | 0.00 | 0.00 | 0.00 | 94 | 1022.1 | |
| 20260831094036 | 66 | 0.0 | 1.7 | 0.00 | 0.00 | 0.00 | 95 | 1022.0 | |
| 20260831093016 | 66 | 0.0 | 1.7 | 0.00 | 0.00 | 0.00 | 94 | 1022.0 | |
| 20260831092016 | 66 | 0.0 | 0.0 | 0.00 | 0.00 | 0.00 | 94 | 1022.1 | |
| 20260831091016 | 66 | 0.0 | 0.9 | 0.00 | 0.00 | 0.00 | 94 | 1022.0 | |
| 20260831090015 | 66 | 0.0 | 1.7 | 0.00 | 0.00 | 0.00 | 94 | 1022.1 | |
| 20260831085015 | 66 | 0.0 | 1.7 | 0.00 | 0.00 | 0.00 | 94 | 1022.0 | |
| 20260831084016 | 66 | 0.0 | 1.7 | 0.00 | 0.00 | 0.00 | 94 | 1021.9 | |
| 20260831083015 | 66 | 0.0 | 1.7 | 0.00 | 0.00 | 0.00 | 94 | 1021.8 | |
| 20260831082015 | 66 | 0.0 | 1.7 | 0.00 | 0.00 | 0.00 | 94 | 1021.9 | |
| 20260831081016 | 67 | 0.0 | 1.7 | 0.00 | 0.00 | 0.00 | 94 | 1021.9 | |
| 20260831080035 | 66 | 23 | 0.9 | 0.9 | 0.00 | 0.00 | 0.00 | 94 | 1021.9 |
| 20260831075039 | 66 | 0.0 | 1.7 | 0.00 | 0.00 | 0.00 | 93 | 1022.0 | |
| 20260831074018 | 67 | 0 | 0.9 | 1.7 | 0.00 | 0.00 | 0.00 | 93 | 1022.0 |
| 20260831073019 | 67 | 0.0 | 0.0 | 0.00 | 0.00 | 0.00 | 93 | 1021.8 | |
| 20260831072015 | 67 | 0.0 | 0.9 | 0.00 | 0.00 | 0.00 | 93 | 1021.8 | |
| 20260831071017 | 67 | 0.0 | 1.7 | 0.00 | 0.00 | 0.00 | 93 | 1021.8 | |
| 20260831070015 | 67 | 0 | 0.9 | 0.9 | 0.00 | 0.00 | 0.00 | 92 | 1021.8 |
| 20260831065017 | 67 | 0.0 | 0.0 | 0.00 | 0.00 | 0.00 | 92 | 1022.0 | |
| 20260831064017 | 67 | 0.0 | 0.9 | 0.00 | 0.00 | 0.00 | 92 | 1021.9 | |
| 20260831063023 | 67 | 0.0 | 0.0 | 0.00 | 0.00 | 0.00 | 91 | 1021.9 | |
| 20260831062037 | 68 | 0.0 | 0.0 | 0.00 | 0.00 | 0.00 | 91 | 1021.8 | |
| 20260831061017 | 68 | 0.0 | 0.9 | 0.00 | 0.00 | 0.00 | 92 | 1022.0 | |
| 20260831060017 | 68 | 0.0 | 0.9 | 0.00 | 0.00 | 0.00 | 91 | 1022.0 | |
| 20260831055017 | 68 | 0 | 0.9 | 0.9 | 0.00 | 0.00 | 0.00 | 91 | 1022.0 |
| 20260831054017 | 68 | 0.0 | 0.9 | 0.00 | 0.00 | 0.00 | 91 | 1022.1 | |
| 20260831053017 | 68 | 0.0 | 0.0 | 0.00 | 0.00 | 0.00 | 90 | 1022.1 | |
| 20260831052017 | 68 | 0.0 | 1.7 | 0.00 | 0.00 | 0.00 | 90 | 1022.2 | |
| 20260831051017 | 69 | 0.0 | 0.9 | 0.00 | 0.00 | 0.00 | 90 | 1022.1 | |
| 20260831050017 | 68 | 0.0 | 0.9 | 0.00 | 0.00 | 0.00 | 90 | 1022.0 | |
| 20260831045017 | 69 | 0.0 | 1.7 | 0.00 | 0.00 | 0.00 | 90 | 1022.0 | |
| 20260831044018 | 69 | 0.0 | 1.7 | 0.00 | 0.00 | 0.00 | 90 | 1022.0 | |
| 20260831043017 | 69 | 0.0 | 1.7 | 0.00 | 0.00 | 0.00 | 90 | 1022.0 | |
| 20260831042037 | 68 | 0.0 | 0.0 | 0.00 | 0.00 | 0.00 | 90 | 1021.8 | |
| 20260831041017 | 69 | 0.0 | 1.7 | 0.00 | 0.00 | 0.00 | 90 | 1021.9 | |
| 20260831040017 | 69 | 0 | 0.9 | 0.9 | 0.00 | 0.00 | 0.00 | 90 | 1021.9 |
| 20260831035016 | 69 | 0.0 | 0.0 | 0.00 | 0.00 | 0.00 | 90 | 1021.9 | |
| 20260831034016 | 69 | 0.0 | 0.0 | 0.00 | 0.00 | 0.00 | 90 | 1021.8 | |
| 20260831033018 | 69 | 0.0 | 0.0 | 0.00 | 0.00 | 0.00 | 90 | 1021.7 | |
| 20260831032019 | 69 | 0.0 | 0.0 | 0.00 | 0.00 | 0.00 | 89 | 1021.7 | |
| 20260831031021 | 69 | 0.0 | 0.9 | 0.00 | 0.00 | 0.00 | 89 | 1021.9 | |
| 20260831030016 | 70 | 0.0 | 0.0 | 0.00 | 0.00 | 0.00 | 89 | 1021.9 | |
| 20260831025016 | 70 | 0.0 | 0.0 | 0.00 | 0.00 | 0.00 | 88 | 1021.9 | |
| 20260831024016 | 70 | 0.0 | 0.0 | 0.00 | 0.00 | 0.00 | 88 | 1021.9 | |
| 20260831023136 | 70 | 0.0 | 0.0 | 0.00 | 0.00 | 0.00 | 89 | 1022.0 | |
| 20260831022016 | 71 | 0.0 | 0.9 | 0.00 | 0.00 | 0.00 | 88 | 1022.0 | |
| 20260831021036 | 71 | 0.0 | 0.9 | 0.00 | 0.00 | 0.00 | 89 | 1021.9 | |
| 20260831020016 | 71 | 0.0 | 1.7 | 0.00 | 0.00 | 0.00 | 89 | 1021.9 | |
| 20260831015016 | 72 | 0.0 | 1.7 | 0.00 | 0.00 | 0.00 | 89 | 1021.7 | |
| 20260831014019 | 72 | 0.0 | 1.7 | 0.00 | 0.00 | 0.00 | 88 | 1021.7 | |
| 20260831013019 | 73 | 0.0 | 1.7 | 0.00 | 0.00 | 0.00 | 88 | 1021.6 | |
| 20260831012018 | 73 | 0.0 | 1.7 | 0.00 | 0.00 | 0.00 | 88 | 1021.5 | |
| 20260831011016 | 74 | 0.0 | 0.0 | 0.00 | 0.00 | 0.00 | 87 | 1021.3 | |
| 20260831010015 | 74 | 0.0 | 0.0 | 0.00 | 0.00 | 0.00 | 86 | 1021.5 | |
| 20260831005016 | 74 | 0.0 | 0.9 | 0.00 | 0.00 | 0.00 | 86 | 1021.3 | |
| 20260831004015 | 75 | 0.0 | 0.0 | 0.00 | 0.00 | 0.00 | 85 | 1021.1 | |
| 20260831003016 | 76 | 0.0 | 0.0 | 0.00 | 0.00 | 0.00 | 83 | 1021.2 | |
| 20260831002035 | 76 | 0.0 | 0.9 | 0.00 | 0.00 | 0.00 | 82 | 1021.0 | |
| 20260831001016 | 77 | 0.0 | 0.9 | 0.00 | 0.00 | 0.00 | 81 | 1020.7 | |
| 20260831000015 | 78 | 0.0 | 0.9 | 0.00 | 0.00 | 0.00 | 80 | 1020.8 | |
| 20260830235035 | 79 | 0.0 | 0.9 | 0.00 | 0.00 | 0.00 | 80 | 1020.8 | |
| 20260830234037 | 80 | 0.0 | 1.7 | 0.00 | 0.00 | 0.00 | 79 | 1020.6 | |
| 20260830233017 | 81 | 0.0 | 0.9 | 0.00 | 0.00 | 0.00 | 78 | 1020.7 | |
| 20260830232017 | 82 | 338 | 0.9 | 0.9 | 0.00 | 0.00 | 0.00 | 75 | 1020.8 |
| 20260830231018 | 84 | 338 | 0.9 | 0.9 | 0.00 | 0.00 | 0.00 | 71 | 1020.9 |
| 20260830230015 | 85 | 338 | 0.9 | 0.9 | 0.00 | 0.00 | 0.00 | 69 | 1021.1 |
| 20260830225037 | 86 | 338 | 0.9 | 0.9 | 0.00 | 0.00 | 0.00 | 68 | 1020.9 |
| 20260830224017 | 87 | 315 | 0.9 | 0.9 | 0.00 | 0.00 | 0.00 | 66 | 1021.0 |
| 20260830223017 | 88 | 315 | 0.9 | 0.9 | 0.00 | 0.00 | 0.00 | 63 | 1020.9 |
| 20260830222057 | 88 | 338 | 0.9 | 1.7 | 0.00 | 0.00 | 0.00 | 59 | 1021.1 |
| 20260830221021 | 89 | 0 | 0.9 | 1.7 | 0.00 | 0.00 | 0.00 | 60 | 1021.2 |
| 20260830220020 | 89 | 338 | 0.9 | 1.7 | 0.00 | 0.00 | 0.00 | 58 | 1021.2 |
| 20260830215024 | 89 | 0.0 | 1.7 | 0.00 | 0.00 | 0.00 | 53 | 1021.3 | |
| 20260830214017 | 89 | 0 | 1.7 | 2.6 | 0.00 | 0.00 | 0.00 | 53 | 1021.1 |
| 20260830213017 | 89 | 338 | 1.7 | 2.6 | 0.00 | 0.00 | 0.00 | 54 | 1021.2 |